UAL191 KSTL-KMDT

Flight info

Callsign UAL191
Flight time 1h 24m
Altitude 39000
Route GATWY1 ROD J152 HAR
Aircraft A20N/M-SDE2E3FGHIRWXY/LB1

Departure

Time 2026-05-07 01:02
Airport St. Louis Lambert International Airport (KSTL)

Arrival

Time 2026-05-07 02:26
Airport Harrisburg International Airport (KMDT)
Time Latitude Longitude Altitude Speed Heading
2026-05-06 23:55 38.74256 -90.36386 564 ft 0 kts 163°
2026-05-07 00:42 38.74258 -90.36386 564 ft 2 kts 163°
2026-05-07 00:42 38.74280 -90.36400 570 ft 4 kts 130°
2026-05-07 00:43 38.74292 -90.36429 562 ft 4 kts 96°
2026-05-07 00:43 38.74293 -90.36455 568 ft 0 kts 89°
2026-05-07 00:49 38.74293 -90.36449 561 ft 2 kts 89°
2026-05-07 00:49 38.74300 -90.36419 564 ft 5 kts 54°
2026-05-07 00:49 38.74336 -90.36370 565 ft 10 kts 39°
2026-05-07 00:49 38.74392 -90.36323 562 ft 9 kts 30°
2026-05-07 00:50 38.74427 -90.36269 568 ft 8 kts 85°
2026-05-07 00:50 38.74418 -90.36228 566 ft 0 kts 117°
2026-05-07 00:50 38.74417 -90.36225 571 ft 2 kts 117°
2026-05-07 00:50 38.74390 -90.36168 567 ft 11 kts 122°
2026-05-07 00:51 38.74341 -90.36070 573 ft 14 kts 122°
2026-05-07 00:51 38.74285 -90.35957 573 ft 17 kts 124°
2026-05-07 00:51 38.74219 -90.35825 577 ft 19 kts 122°
2026-05-07 00:51 38.74147 -90.35679 578 ft 21 kts 121°
2026-05-07 00:52 38.74065 -90.35514 583 ft 22 kts 123°
2026-05-07 00:52 38.73982 -90.35344 582 ft 23 kts 123°
2026-05-07 00:52 38.73898 -90.35174 589 ft 22 kts 122°
2026-05-07 00:52 38.73817 -90.35010 593 ft 22 kts 122°
2026-05-07 00:53 38.73751 -90.34877 597 ft 12 kts 123°
2026-05-07 00:53 38.73719 -90.34813 598 ft 0 kts 121°
2026-05-07 00:56 38.73714 -90.34802 598 ft 4 kts 121°
2026-05-07 00:57 38.73695 -90.34758 597 ft 6 kts 107°
2026-05-07 00:57 38.73706 -90.34726 597 ft 0 kts 41°
2026-05-07 01:00 38.73714 -90.34717 597 ft 4 kts 41°
2026-05-07 01:00 38.73751 -90.34684 597 ft 9 kts 25°
2026-05-07 01:01 38.73809 -90.34709 597 ft 11 kts 308°
2026-05-07 01:01 38.73854 -90.34805 595 ft 15 kts 303°
2026-05-07 01:01 38.74033 -90.35156 585 ft 92 kts 301°
2026-05-07 01:01 38.74518 -90.36140 581 ft 165 kts 302°
2026-05-07 01:02 38.74939 -90.37015 898 ft 179 kts 302°
2026-05-07 01:02 38.75609 -90.38460 1616 ft 198 kts 301°
2026-05-07 01:02 38.76334 -90.40061 2363 ft 220 kts 301°
2026-05-07 01:02 38.77129 -90.41851 3195 ft 242 kts 301°
2026-05-07 01:03 38.77982 -90.43807 4143 ft 260 kts 301°
2026-05-07 01:03 38.78878 -90.45896 5134 ft 275 kts 300°
2026-05-07 01:03 38.79811 -90.48094 6174 ft 286 kts 300°
2026-05-07 01:03 38.80812 -90.50237 7713 ft 272 kts 303°
2026-05-07 01:04 38.81803 -90.52247 9226 ft 266 kts 303°
2026-05-07 01:04 38.82867 -90.54212 10373 ft 271 kts 313°
2026-05-07 01:04 38.84476 -90.55641 11074 ft 298 kts 334°
2026-05-07 01:04 38.86622 -90.56138 11610 ft 334 kts 356°
2026-05-07 01:05 38.88970 -90.55441 12402 ft 362 kts 19°
2026-05-07 01:05 38.91112 -90.53571 13273 ft 386 kts 40°
2026-05-07 01:05 38.92725 -90.50726 14193 ft 404 kts 61°
2026-05-07 01:05 38.93587 -90.47236 15045 ft 417 kts 82°
2026-05-07 01:06 38.93580 -90.43546 15905 ft 422 kts 103°
2026-05-07 01:06 38.92687 -90.39930 16799 ft 419 kts 123°
2026-05-07 01:06 38.91081 -90.36920 17632 ft 413 kts 140°
2026-05-07 01:06 38.89263 -90.34024 18560 ft 423 kts 133°
2026-05-07 01:07 38.87805 -90.30647 19351 ft 444 kts 120°
2026-05-07 01:07 38.86823 -90.26810 20101 ft 460 kts 110°
2026-05-07 01:07 38.86174 -90.22738 20875 ft 471 kts 105°
2026-05-07 01:07 38.85681 -90.18535 21538 ft 481 kts 103°
2026-05-07 01:08 38.85238 -90.14250 22231 ft 488 kts 103°
2026-05-07 01:08 38.84793 -90.09904 22862 ft 495 kts 103°
2026-05-07 01:08 38.84333 -90.05506 23550 ft 500 kts 103°
2026-05-07 01:08 38.83854 -90.01058 24123 ft 507 kts 104°
2026-05-07 01:09 38.83360 -89.96550 24696 ft 513 kts 104°
2026-05-07 01:09 38.82855 -89.91982 25116 ft 523 kts 104°
2026-05-07 01:09 38.82337 -89.87335 25664 ft 527 kts 104°
2026-05-07 01:09 38.81820 -89.82723 26141 ft 532 kts 105°
2026-05-07 01:10 38.81289 -89.78000 26618 ft 537 kts 105°
2026-05-07 01:10 38.80754 -89.73247 27021 ft 542 kts 105°
2026-05-07 01:10 38.80211 -89.68438 27428 ft 547 kts 105°
2026-05-07 01:10 38.79662 -89.63598 27872 ft 551 kts 105°
2026-05-07 01:11 38.79136 -89.58698 28225 ft 559 kts 101°
2026-05-07 01:11 38.79055 -89.53664 28613 ft 570 kts 90°
2026-05-07 01:11 38.79549 -89.48589 28947 ft 577 kts 82°
2026-05-07 01:11 38.80218 -89.43498 29255 ft 581 kts 82°
2026-05-07 01:12 38.80886 -89.38369 29594 ft 585 kts 83°
2026-05-07 01:12 38.81551 -89.33203 29891 ft 590 kts 83°
2026-05-07 01:12 38.82213 -89.28001 30242 ft 592 kts 83°
2026-05-07 01:12 38.82875 -89.22776 30566 ft 596 kts 83°
2026-05-07 01:13 38.83539 -89.17510 30889 ft 599 kts 83°
2026-05-07 01:13 38.84205 -89.12222 31231 ft 602 kts 83°
2026-05-07 01:13 38.84870 -89.06913 31669 ft 602 kts 83°
2026-05-07 01:13 38.85531 -89.01613 32117 ft 602 kts 83°
2026-05-07 01:14 38.86189 -88.96311 32528 ft 602 kts 84°
2026-05-07 01:14 38.86846 -88.90998 32950 ft 602 kts 84°
2026-05-07 01:14 38.87499 -88.85695 33323 ft 602 kts 84°
2026-05-07 01:14 38.88151 -88.80385 33713 ft 602 kts 84°
2026-05-07 01:15 38.88791 -88.75143 34091 ft 602 kts 84°
2026-05-07 01:15 38.89439 -88.69829 34438 ft 602 kts 84°
2026-05-07 01:15 38.90083 -88.64516 34820 ft 602 kts 84°
2026-05-07 01:15 38.90726 -88.59196 35164 ft 602 kts 84°
2026-05-07 01:16 38.91363 -88.53897 35523 ft 601 kts 84°
2026-05-07 01:16 38.92100 -88.48609 35845 ft 602 kts 77°
2026-05-07 01:16 38.93355 -88.43484 36154 ft 602 kts 69°
2026-05-07 01:16 38.94788 -88.38431 36486 ft 601 kts 69°
2026-05-07 01:17 38.96211 -88.33382 36810 ft 599 kts 69°
2026-05-07 01:17 38.97620 -88.28360 37205 ft 597 kts 69°
2026-05-07 01:17 38.99004 -88.23414 37548 ft 594 kts 69°
2026-05-07 01:17 39.00416 -88.18354 37857 ft 593 kts 69°
2026-05-07 01:18 39.01787 -88.13431 38097 ft 593 kts 69°
2026-05-07 01:18 39.03194 -88.08373 38323 ft 593 kts 69°
2026-05-07 01:18 39.04579 -88.03382 38533 ft 593 kts 69°
2026-05-07 01:18 39.05945 -87.98450 38723 ft 593 kts 69°
2026-05-07 01:19 39.07326 -87.93449 38918 ft 593 kts 68°
2026-05-07 01:19 39.08706 -87.88445 39057 ft 595 kts 68°
2026-05-07 01:19 39.10096 -87.83399 39055 ft 600 kts 68°
2026-05-07 01:20 39.12901 -87.73199 39054 ft 608 kts 69°
2026-05-07 01:20 39.15728 -87.62863 39055 ft 614 kts 69°
2026-05-07 01:21 39.18568 -87.52434 39055 ft 617 kts 69°
2026-05-07 01:21 39.21409 -87.41968 39045 ft 621 kts 69°
2026-05-07 01:22 39.24257 -87.31432 39045 ft 622 kts 69°
2026-05-07 01:22 39.27096 -87.20871 39045 ft 624 kts 69°
2026-05-07 01:23 39.29915 -87.10353 39035 ft 624 kts 69°
2026-05-07 01:23 39.32745 -86.99749 39037 ft 625 kts 69°
2026-05-07 01:24 39.35567 -86.89135 39036 ft 625 kts 69°
2026-05-07 01:24 39.38379 -86.78508 39037 ft 625 kts 69°
2026-05-07 01:25 39.41180 -86.67877 39054 ft 625 kts 69°
2026-05-07 01:25 39.43972 -86.57237 39053 ft 624 kts 69°
2026-05-07 01:26 39.46758 -86.46581 39055 ft 624 kts 69°
2026-05-07 01:26 39.49532 -86.35911 39045 ft 625 kts 69°
2026-05-07 01:27 39.52286 -86.25270 39044 ft 615 kts 69°
2026-05-07 01:27 39.54979 -86.14821 39046 ft 605 kts 69°
2026-05-07 01:28 39.57587 -86.04656 39054 ft 590 kts 69°
2026-05-07 01:28 39.60171 -85.94555 39046 ft 592 kts 70°
2026-05-07 01:29 39.62770 -85.84392 39030 ft 593 kts 68°
2026-05-07 01:29 39.66176 -85.74725 39028 ft 588 kts 59°
2026-05-07 01:30 39.69782 -85.65191 39030 ft 588 kts 59°
2026-05-07 01:30 39.73372 -85.55645 39030 ft 588 kts 59°
2026-05-07 01:31 39.76959 -85.46082 39027 ft 588 kts 59°
2026-05-07 01:31 39.80535 -85.36514 39033 ft 588 kts 59°
2026-05-07 01:32 39.84100 -85.26948 39032 ft 588 kts 59°
2026-05-07 01:32 39.87662 -85.17358 39033 ft 588 kts 59°
2026-05-07 01:33 39.91214 -85.07766 39032 ft 588 kts 59°
2026-05-07 01:33 39.94754 -84.98174 39031 ft 588 kts 59°
2026-05-07 01:34 39.98287 -84.88572 39030 ft 587 kts 59°
2026-05-07 01:34 40.01789 -84.79024 39032 ft 587 kts 60°
2026-05-07 01:35 40.05294 -84.69432 39013 ft 583 kts 60°
2026-05-07 01:35 40.08775 -84.59876 39028 ft 584 kts 60°
2026-05-07 01:36 40.12261 -84.50274 39030 ft 584 kts 60°
2026-05-07 01:36 40.15738 -84.40673 39032 ft 585 kts 60°
2026-05-07 01:37 40.19211 -84.31040 39014 ft 585 kts 60°
2026-05-07 01:37 40.22668 -84.21417 39027 ft 585 kts 60°
2026-05-07 01:38 40.26102 -84.11824 39020 ft 586 kts 62°
2026-05-07 01:38 40.28543 -84.01634 39014 ft 589 kts 81°
2026-05-07 01:39 40.29135 -83.90967 39019 ft 587 kts 91°
2026-05-07 01:39 40.29424 -83.80268 39027 ft 587 kts 91°
2026-05-07 01:40 40.29707 -83.69572 39030 ft 588 kts 91°
2026-05-07 01:40 40.29971 -83.58872 39034 ft 588 kts 91°
2026-05-07 01:41 40.30221 -83.48169 39029 ft 588 kts 91°
2026-05-07 01:41 40.30466 -83.37472 39006 ft 587 kts 91°
2026-05-07 01:42 40.30700 -83.26820 39016 ft 584 kts 91°
2026-05-07 01:42 40.30922 -83.16179 39030 ft 585 kts 91°
2026-05-07 01:43 40.31131 -83.05580 39027 ft 584 kts 91°
2026-05-07 01:43 40.31336 -82.94889 39021 ft 584 kts 91°
2026-05-07 01:44 40.31529 -82.84254 39010 ft 584 kts 91°
2026-05-07 01:44 40.31712 -82.73656 39022 ft 585 kts 91°
2026-05-07 01:45 40.31885 -82.62998 39030 ft 585 kts 91°
2026-05-07 01:45 40.32049 -82.52322 39028 ft 587 kts 91°
2026-05-07 01:46 40.32204 -82.41625 39019 ft 587 kts 91°
2026-05-07 01:46 40.32349 -82.30902 39023 ft 588 kts 91°
2026-05-07 01:47 40.32485 -82.20176 39013 ft 589 kts 91°
2026-05-07 01:47 40.32610 -82.09486 39027 ft 590 kts 91°
2026-05-07 01:48 40.32726 -81.98717 39030 ft 591 kts 91°
2026-05-07 01:48 40.32830 -81.87951 39030 ft 591 kts 92°
2026-05-07 01:49 40.32911 -81.79002 39032 ft 591 kts 92°
2026-05-07 01:49 40.32998 -81.68254 39024 ft 588 kts 92°
2026-05-07 01:50 40.33076 -81.57535 39021 ft 588 kts 92°
2026-05-07 01:50 40.33143 -81.46816 39000 ft 588 kts 92°
2026-05-07 01:51 40.33200 -81.36116 38989 ft 587 kts 92°
2026-05-07 01:51 40.33247 -81.25420 38991 ft 587 kts 92°
2026-05-07 01:52 40.33285 -81.14734 38990 ft 586 kts 92°
2026-05-07 01:52 40.33312 -81.04047 38991 ft 586 kts 92°
2026-05-07 01:53 40.33331 -80.93375 38988 ft 586 kts 92°
2026-05-07 01:53 40.33340 -80.82702 38977 ft 585 kts 92°
2026-05-07 01:54 40.33338 -80.72038 38965 ft 585 kts 92°
2026-05-07 01:54 40.33325 -80.61443 38974 ft 584 kts 92°
2026-05-07 01:55 40.33304 -80.50780 38969 ft 585 kts 92°
2026-05-07 01:55 40.33273 -80.40122 38969 ft 585 kts 92°
2026-05-07 01:56 40.33232 -80.29458 38977 ft 585 kts 92°
2026-05-07 01:56 40.33181 -80.18786 38973 ft 586 kts 92°
2026-05-07 01:57 40.33121 -80.08101 38972 ft 587 kts 92°
2026-05-07 01:57 40.33050 -79.97454 38966 ft 588 kts 92°
2026-05-07 01:58 40.32965 -79.86725 38974 ft 589 kts 92°
2026-05-07 01:58 40.32874 -79.75984 38985 ft 589 kts 92°
2026-05-07 01:59 40.32774 -79.65257 38981 ft 587 kts 92°
2026-05-07 01:59 40.32664 -79.54563 38981 ft 586 kts 93°
2026-05-07 02:00 40.32542 -79.43876 38990 ft 586 kts 93°
2026-05-07 02:00 40.32413 -79.33210 38991 ft 585 kts 92°
2026-05-07 02:01 40.32272 -79.22546 38993 ft 584 kts 92°
2026-05-07 02:01 40.32123 -79.11966 38790 ft 584 kts 92°
2026-05-07 02:01 40.32044 -79.06597 38542 ft 583 kts 92°
2026-05-07 02:02 40.31965 -79.01340 38283 ft 583 kts 92°
2026-05-07 02:02 40.31882 -78.96025 37753 ft 584 kts 92°
2026-05-07 02:02 40.31797 -78.90697 37097 ft 584 kts 92°
2026-05-07 02:02 40.31708 -78.85383 36341 ft 586 kts 92°
2026-05-07 02:03 40.31630 -78.80028 35457 ft 589 kts 92°
2026-05-07 02:03 40.31616 -78.74637 34573 ft 593 kts 91°
2026-05-07 02:03 40.31626 -78.69239 33782 ft 593 kts 91°
2026-05-07 02:03 40.31632 -78.63834 32977 ft 594 kts 91°
2026-05-07 02:04 40.31629 -78.58420 32111 ft 595 kts 91°
2026-05-07 02:04 40.31618 -78.53008 31291 ft 594 kts 91°
2026-05-07 02:04 40.31602 -78.47614 30692 ft 587 kts 92°
2026-05-07 02:04 40.31583 -78.42285 30060 ft 582 kts 92°
2026-05-07 02:05 40.31560 -78.37012 29429 ft 576 kts 92°
2026-05-07 02:05 40.31534 -78.31787 28798 ft 570 kts 92°
2026-05-07 02:05 40.31507 -78.26615 28166 ft 564 kts 92°
2026-05-07 02:05 40.31481 -78.21558 27548 ft 558 kts 92°
2026-05-07 02:06 40.31451 -78.16514 26931 ft 551 kts 92°
2026-05-07 02:06 40.31418 -78.11516 26310 ft 545 kts 92°
2026-05-07 02:06 40.31382 -78.06576 25690 ft 540 kts 92°
2026-05-07 02:06 40.31346 -78.01685 25075 ft 534 kts 93°
2026-05-07 02:07 40.31307 -77.96852 24464 ft 528 kts 93°
2026-05-07 02:07 40.31227 -77.87353 23245 ft 515 kts 93°
2026-05-07 02:07 40.31185 -77.82678 22640 ft 510 kts 93°
2026-05-07 02:08 40.31141 -77.78056 22030 ft 504 kts 93°
2026-05-07 02:08 40.31095 -77.73486 21422 ft 498 kts 93°
2026-05-07 02:08 40.31049 -77.68967 20820 ft 491 kts 93°
2026-05-07 02:08 40.30868 -77.64540 20200 ft 483 kts 101°
2026-05-07 02:09 40.30038 -77.60340 19573 ft 469 kts 117°
2026-05-07 02:09 40.28767 -77.56442 18948 ft 461 kts 119°
2026-05-07 02:09 40.27484 -77.52618 18324 ft 456 kts 119°
2026-05-07 02:09 40.26205 -77.48849 17703 ft 450 kts 119°
2026-05-07 02:10 40.24950 -77.45179 17087 ft 445 kts 119°
2026-05-07 02:10 40.23693 -77.41503 16467 ft 440 kts 119°
2026-05-07 02:10 40.22454 -77.37873 15840 ft 435 kts 119°
2026-05-07 02:10 40.21227 -77.34277 15212 ft 430 kts 119°
2026-05-07 02:11 40.20026 -77.30743 14578 ft 419 kts 119°
2026-05-07 02:11 40.18862 -77.27308 13949 ft 406 kts 119°
2026-05-07 02:11 40.17739 -77.23979 13328 ft 394 kts 119°
2026-05-07 02:11 40.16655 -77.20742 12699 ft 384 kts 119°
2026-05-07 02:12 40.15597 -77.17570 12077 ft 376 kts 119°
2026-05-07 02:12 40.14573 -77.14467 11452 ft 368 kts 119°
2026-05-07 02:12 40.13574 -77.11438 10928 ft 358 kts 119°
2026-05-07 02:12 40.12602 -77.08495 10436 ft 347 kts 119°
2026-05-07 02:13 40.11646 -77.05647 9930 ft 337 kts 119°
2026-05-07 02:13 40.10701 -77.02893 9436 ft 328 kts 119°
2026-05-07 02:13 40.09773 -77.00212 8934 ft 320 kts 119°
2026-05-07 02:13 40.08853 -76.97605 8432 ft 312 kts 119°
2026-05-07 02:14 40.07947 -76.95070 7933 ft 305 kts 119°
2026-05-07 02:14 40.07045 -76.92584 7437 ft 301 kts 119°
2026-05-07 02:14 40.06140 -76.90110 6936 ft 301 kts 119°
2026-05-07 02:14 40.05239 -76.87674 6435 ft 295 kts 119°
2026-05-07 02:15 40.04345 -76.85279 5937 ft 293 kts 119°
2026-05-07 02:15 40.03462 -76.82937 5439 ft 289 kts 119°
2026-05-07 02:15 40.02573 -76.80597 4942 ft 288 kts 119°
2026-05-07 02:15 40.01686 -76.78273 4444 ft 284 kts 119°
2026-05-07 02:16 40.00797 -76.75955 3952 ft 287 kts 119°
2026-05-07 02:16 39.99900 -76.73624 3444 ft 285 kts 119°
2026-05-07 02:16 39.99029 -76.71353 3111 ft 273 kts 119°
2026-05-07 02:16 39.98223 -76.69202 3008 ft 254 kts 119°
2026-05-07 02:17 39.97491 -76.67220 2994 ft 232 kts 119°
2026-05-07 02:17 39.96825 -76.65390 2998 ft 222 kts 119°
2026-05-07 02:17 39.96159 -76.63562 2997 ft 222 kts 119°
2026-05-07 02:17 39.95500 -76.61746 2995 ft 222 kts 119°
2026-05-07 02:18 39.95020 -76.59842 2996 ft 225 kts 94°
2026-05-07 02:18 39.95350 -76.57830 2995 ft 230 kts 60°
2026-05-07 02:18 39.96455 -76.56355 2998 ft 229 kts 25°
2026-05-07 02:18 39.97908 -76.55562 2995 ft 226 kts 14°
2026-05-07 02:19 39.99398 -76.54957 2997 ft 224 kts 13°
2026-05-07 02:19 40.00888 -76.54344 2994 ft 224 kts 14°
2026-05-07 02:19 40.02358 -76.53680 2996 ft 223 kts 17°
2026-05-07 02:19 40.03809 -76.52978 2995 ft 222 kts 18°
2026-05-07 02:20 40.05259 -76.52249 2997 ft 224 kts 18°
2026-05-07 02:20 40.06707 -76.51509 2994 ft 224 kts 18°
2026-05-07 02:20 40.08203 -76.51089 2942 ft 218 kts 351°
2026-05-07 02:20 40.09566 -76.51753 2819 ft 206 kts 314°
2026-05-07 02:21 40.10358 -76.53219 2740 ft 192 kts 295°
2026-05-07 02:21 40.10961 -76.54718 2663 ft 181 kts 295°
2026-05-07 02:21 40.11529 -76.56135 2591 ft 170 kts 294°
2026-05-07 02:21 40.12038 -76.57441 2557 ft 154 kts 294°
2026-05-07 02:22 40.12501 -76.58638 2478 ft 142 kts 294°
2026-05-07 02:22 40.12925 -76.59728 2359 ft 127 kts 295°
2026-05-07 02:22 40.13309 -76.60731 2321 ft 132 kts 295°
2026-05-07 02:22 40.13718 -76.61784 2258 ft 130 kts 296°
2026-05-07 02:23 40.14129 -76.62845 2199 ft 131 kts 296°
2026-05-07 02:23 40.14543 -76.63910 2110 ft 132 kts 296°
2026-05-07 02:23 40.14953 -76.64974 1962 ft 131 kts 296°
2026-05-07 02:23 40.15361 -76.66034 1803 ft 130 kts 298°
2026-05-07 02:24 40.15766 -76.67083 1644 ft 129 kts 299°
2026-05-07 02:24 40.16172 -76.68128 1472 ft 129 kts 299°
2026-05-07 02:24 40.16578 -76.69174 1309 ft 128 kts 299°
2026-05-07 02:24 40.16977 -76.70210 1143 ft 127 kts 298°
2026-05-07 02:25 40.17379 -76.71247 965 ft 129 kts 299°
2026-05-07 02:25 40.17784 -76.72296 803 ft 131 kts 300°
2026-05-07 02:25 40.18181 -76.73325 631 ft 128 kts 300°
2026-05-07 02:25 40.18583 -76.74373 450 ft 132 kts 299°
2026-05-07 02:26 40.18992 -76.75440 332 ft 131 kts 300°
2026-05-07 02:26 40.19366 -76.76368 311 ft 82 kts 296°
2026-05-07 02:26 40.19483 -76.76672 310 ft 0 kts 295°
2026-05-07 02:27 40.19493 -76.76673 311 ft 7 kts 353°
2026-05-07 02:27 40.19573 -76.76648 309 ft 10 kts 58°
2026-05-07 02:27 40.19561 -76.76572 309 ft 12 kts 110°
2026-05-07 02:27 40.19521 -76.76457 309 ft 16 kts 121°
2026-05-07 02:28 40.19460 -76.76314 309 ft 20 kts 117°
2026-05-07 02:28 40.19403 -76.76168 309 ft 10 kts 116°
2026-05-07 02:28 40.19369 -76.76071 312 ft 13 kts 115°
2026-05-07 02:28 40.19321 -76.75945 310 ft 18 kts 116°
2026-05-07 02:29 40.19258 -76.75788 312 ft 21 kts 116°
2026-05-07 02:29 40.19188 -76.75606 308 ft 22 kts 115°
2026-05-07 02:29 40.19220 -76.75496 310 ft 9 kts 26°
2026-05-07 02:29 40.19276 -76.75439 309 ft 11 kts 54°
2026-05-07 02:30 40.19324 -76.75368 308 ft 11 kts 35°
2026-05-07 02:30 40.19363 -76.75387 310 ft 4 kts 315°
2026-05-07 02:30 40.19391 -76.75415 311 ft 5 kts 337°
2026-05-07 02:30 40.19427 -76.75426 312 ft 6 kts 335°
2026-05-07 02:31 40.19432 -76.75430 312 ft 0 kts 330°